COSMOS 2251 DEB, 34722

Orbit data source: Space-Track

COSMOS 2251 DEB, 34722 is space debris in LEO originally from a launch on Wed, 16 Jun 1993 UTC launched from the Plesetsk Missile And Space Complex (PKMTR). The debris from Iridium 33, an American commercial communications satellite, has been tracked extensively since its accidental collision with the defunct Russian satellite Cosmos 2251 in 2009. This event, occurring at high speed in low Earth orbit (LEO), generated thousands of pieces of space debris, significantly increasing the risk of further collisions. The Iridium 33 debris cloud has impacted space traffic management and orbital debris mitigation strategies, making it a subject of ongoing study in space situational awareness.

Loading next visibility...
Identifier
34722, 1993-036YQ
Orbit
LEO
Country
Flag of CISCIS
Related business
Manufacturer
Unknown
Mission
Spacecraft
Bus & Motor
Unknown
Mass
Unknown
Launch date (UTC)
1993-06-16 (33 years ago)
Launch vehicle
Unknown
Launch site
Plesetsk Missile And Space Complex (PKMTR)
Object type
Payload
Rocket body
Debris
Shape & HBR
Unknown shape, 0.1 m
Radar Cross Section
Small (<0.1 m²)

Expand to show TLE details & history
Last TLE update: 6 hours ago

TLE from 6 hours ago
0 COSMOS 2251 DEB
1 34722U 93036YQ  25355.61397170  .00001152  00000-0  56545-3 0  9990
2 34722  73.8731 320.2390 0166680 244.2474 236.1005 14.11959148863706
Epoch: 2025-12-21T14:44Z
TLE epoch observation values (Epoch: 2025-12-21T14:44:07.154Z)
Latitude
57.45484°
Longitude
161.99581°
Altitude
930.558 km
Speed
7.357 km/s
True Right ascension
07h 33m 47s
True Declination
57° 18' 09"
Sunlit
Object was in full shadow at epoch
Visualization orbit readout
Latitude
Unknown
Longitude
Unknown
Altitude
Unknown
Speed
Unknown
Apparent Right ascension
Unknown
Apparent Declination
Unknown
Sunlit
N/A
Visualization observer readout
Local Sidereal Time
19:29:51
Azimuth
Unknown
Elevation
Unknown
Doppler factor
Unknown
Orbital elements
Apogee altitude
970.823 km
Perigee altitude
729.855 km
Semi-major axis
7,228.476 km
Eccentricity
0.01667
Inclination
73.8731°
RAAN
320.239°
Arg. of periapsis
244.2474°
True anomaly
234.53357°
Mean anomaly
236.1005°
Eccentric anomaly
235.3152°
Mean motion
3.53161 °/min
Orbital period
101.94 mins
BSTAR
0.00056545

Documentation

Showing up to 5 results
|